Regional Weather Roundup
Issued by NWS

Home | Current Version | Previous Version | Graphics & Text | Print | Product List | Glossary Off
Versions: 1 2 3 4 5 6 7 8 9 10 11 12 13 14 15 16 17 18 19 20 21 22 23 24 25 26 27 28 29 30 31 32 33 34 35 36 37 38 39 40 41 42 43 44 45 46 47 48 49 50

738
ASUS43 KDMX 220901
RWRIA

WEATHER ROUNDUP FOR IOWA
NATIONAL WEATHER SERVICE DES MOINES IA
400 AM CDT TUE AUG 22 2017

NOTE: "FAIR" INDICATES FEW OR NO CLOUDS BELOW 12,000 FEET WITH NO
SIGNIFICANT WEATHER AND/OR OBSTRUCTIONS TO VISIBILITY.

* - THESE STATIONS ARE NOT NWS STATIONS...THUS NOT UNDER NWS
QUALITY CONTROL.  THEY ALSO DO NOT REPORT WEATHER SUCH
AS PRECIPITATION OR FOG.

IAZ001>003-012>014-020>022-031>034-043>046-221000-
   NORTHWEST IOWA

CITY           SKY/WX    TMP DP  RH WIND       PRES   REMARKS
CARROLL *      CLEAR     63  63 100 W6        30.00R
DENISON *      CLEAR     63  63 100 NW3       30.04R
LE MARS *      CLEAR    104 N/A N/A NW8       30.04R
ORANGE CITY *  CLEAR     63  59  88 N8        30.05R
SHELDON *      PTCLDY    59  57  94 NW8       30.03R
SIOUX CITY     CLEAR     62  62 100 NW8       30.03S
SPENCER        CLEAR     59  57  93 NW10      30.01S
STORM LAKE *   CLEAR     61  61 100 NW9       30.02R
$$

IAZ055>058-069>071-079>083-090>094-221000-
   SOUTHWEST IOWA

CITY           SKY/WX    TMP DP  RH WIND       PRES   REMARKS
ATLANTIC *     CLOUDY    64  63  94 NW7       30.01S
AUDUBON *      MOCLDY    63  61  94 NW5       30.02S FOG
CLARINDA *     CLOUDY    64  64 100 N6        30.04R
COUNCIL BLFS * CLOUDY    64  64 100 NW3       30.03S FOG
CRESTON *      CLOUDY    63  63 100 NW9       30.02S
HARLAN  *      CLOUDY    64  64 100 CALM      30.06R
LAMONI         CLOUDY    65  64  97 W6        29.98R
RED OAK *      CLOUDY    63  63 100 N3        30.02S
SHENANDOAH *   MOCLDY    64  63  94 CALM      30.03R
$$

IAZ047>049-059>061-072>074-084-221000-
   CENTRAL IOWA

CITY           SKY/WX    TMP DP  RH WIND       PRES   REMARKS
AMES           MOCLDY    64  64 100 W7        29.97R
ANKENY *       CLOUDY    64  63  94 W8        29.97S
BOONE *        MOCLDY    63  63 100 W6        29.97R
CHARITON *     CLOUDY    66  64  94 NW9       29.98R
DES MOINES     CLOUDY    65  64  97 W6        29.96S
GRINNELL*      CLOUDY    64  63  94 W8        29.96R
KNOXVILLE *    CLOUDY    66  64  94 NW7       29.96R
MARSHALLTOWN   CLOUDY    64  64 100 W5        29.94F
NEWTON *       CLOUDY    64  63  94 W8G14     29.96R
PELLA *        MOCLDY    65  64  94 NW7       29.96R
PERRY *          N/A     62  62  99 W3        29.99R
$$

IAZ004>006-015-016-023>025-035-036-221000-
   NORTH CENTRAL IOWA

CITY           SKY/WX    TMP DP  RH WIND       PRES   REMARKS
ALGONA *       CLEAR     63  63 100 NW6       29.98S
CLARION *      CLOUDY    59  59 100 W5        29.96S
ESTHERVILLE    CLEAR     59  58  96 NW9       29.99S
FORT DODGE *   CLOUDY    63  59  88 NW5       29.98R
FOREST CITY *    N/A     63  61  94 NW9       29.95S
WEBSTER CITY * CLOUDY    61  61 100 W7        29.95S
IOWA FALLS *   MOCLDY    64  63  96 W6        29.96F
$$

IAZ007>011-017>019-026>030-037>042-050>054-066-221000-
   NORTHEAST IOWA

CITY           SKY/WX    TMP DP  RH WIND       PRES   REMARKS
CEDAR RAPIDS   CLOUDY    65  65 100 NW10      29.90S
CHARLES CITY * PTCLDY    63  63 100 W6        29.92F
CLINTON *      CLOUDY    68  66  93 W8        29.89F
DECORAH *      CLOUDY    63  63 100 CALM      29.88F
DUBUQUE        CLOUDY    66  64  93 W9        29.90S
MONTICELLO *   CLOUDY    66  64  94 W8        29.89F
OELWEIN *      MOCLDY    63  63 100 W8        29.92F
WATERLOO       CLOUDY    63  62  97 W9        29.91F
$$

IAZ064-065-067-068-078-221000-
   EAST CENTRAL IOWA

CITY           SKY/WX    TMP DP  RH WIND       PRES   REMARKS
DAVENPORT      CLOUDY    68  66  93 NW12G22   29.93R
IOWA CITY      CLOUDY    68  66  93 NW7       29.90F
MUSCATINE *    CLOUDY    70  66  88 NW16G25   29.91R
QUAD CITIES    CLOUDY    70  66  87 S12       29.84F
$$

IAZ062-063-075>077-085>089-095>099-221000-
   SOUTHEAST IOWA

CITY           SKY/WX    TMP DP  RH WIND       PRES   REMARKS
BURLINGTON     CLOUDY    68  68 100 SW7       29.92F
FAIRFIELD *    CLOUDY    68  64  88 NW12G29   29.90R
FORT MADISON * DRIZZLE   68  68 100 S7        29.93F
KEOKUK *       CLOUDY    68  68 100 SW12G17   29.93F
OSKALOOSA *      N/A     65  64  95 NW8       29.93R
OTTUMWA        CLOUDY    67  65  93 NW9       29.93R
WASHINGTON *   CLOUDY    68  66  94 W7G13     29.90R
$$

ABBREVIATIONS USED IN REMARKS
   TC - TEMPERATURES IN CELSIUS
  WCI - WIND CHILL INDEX
   HX - HEAT INDEX
  VSB - VISIBILITY
$$





USA.gov is the U.S. government's official web portal to all federal, state and local government web resources and services.